Weather History for KCEW - October, 2012

Change the Weather History Date:

Monday, October 15, 2012

  Actual Average Record
Temperature  
Mean Temperature 74 °F -  
Max Temperature 87 °F 81 °F 90 °F (1990)
Min Temperature 60 °F 51 °F 35 °F (1977)
Cooling Degree Days 8    
Growing Degree Days 24 (Base 50)    
Moisture  
Dew Point 62 °F    
Average Humidity 82    
Maximum Humidity 100    
Minimum Humidity 41    
Precipitation  
Precipitation 0.00 in - - ()
Sea Level Pressure  
Sea Level Pressure 29.98 in    
Wind  
Wind Speed 1 mph (NW)    
Max Wind Speed 13 mph    
Max Gust Speed 17 mph    
Visibility 6 miles    
Events Fog    
Averages and records for this station are not official NWS values.
T = Trace of Precipitation, MM = Missing Value Source: NWS Daily Summary

Daily Weather History Graph

Daily Weather History Graph

Search for Another Location

Airport or City:

Trip Planner

Search our weather history database for the weather conditions in past years. The results will help you decide how hot, cold, wet, or windy it might be!

Date:

Astronomy

Oct. 15, 2012 Rise Set
Actual Time 6:48 AM CDT 6:14 PM CDT
Civil Twilight 6:24 AM CDT 6:38 PM CDT
Nautical Twilight 5:56 AM CDT 7:06 PM CDT
Astronomical Twilight 5:28 AM CDT 7:34 PM CDT
Moon 6:54 AM CDT (10/15) 6:19 PM CDT (10/15)
Length of Visible Light 12h 13m
Length of Day
11h 25m
New Moon, 0% of the Moon is Illuminated
Oct 15
New Moon
Oct 21
First Quarter
Oct 29
Full
Nov 6
Last Quarter
Nov 13
New

Hourly Weather History & Observations

Time (CDT) Temp. Heat Index Dew Point Humidity Pressure Visibility Wind Dir Wind Speed Gust Speed Precip Events Conditions
12:34 AM 64.4 °F - 62.6 °F 94% 30.02 in 3.0 mi Calm Calm - N/A   Mostly Cloudy
12:50 AM 64.4 °F - 62.6 °F 94% 30.02 in 6.0 mi Calm Calm - N/A   Overcast
12:53 AM 64.0 °F - 62.1 °F 93% 30.01 in 4.0 mi Calm Calm - N/A   Overcast
12:55 AM 64.4 °F - 62.6 °F 94% 30.02 in 1.5 mi Calm Calm - N/A   Overcast
1:15 AM 62.6 °F - 62.6 °F 100% 30.01 in 2.5 mi Calm Calm - N/A   Overcast
1:34 AM 62.6 °F - 60.8 °F 94% 30.01 in 1.8 mi Calm Calm - N/A   Overcast
1:38 AM 62.6 °F - 60.8 °F 94% 30.01 in 3.0 mi Calm Calm - N/A   Overcast
1:53 AM 64.0 °F - 62.1 °F 93% 30.00 in 5.0 mi Calm Calm - N/A   Overcast
2:11 AM 64.4 °F - 60.8 °F 88% 30.00 in 1.5 mi Calm Calm - N/A   Overcast
2:16 AM 64.4 °F - 60.8 °F 88% 29.99 in 0.5 mi Calm Calm - N/A Fog Fog
2:30 AM 62.6 °F - 62.6 °F 100% 29.99 in 1.0 mi Calm Calm - N/A   Mist
2:50 AM 62.6 °F - 60.8 °F 94% 29.99 in 2.5 mi Calm Calm - N/A   Overcast
2:53 AM 63.0 °F - 61.0 °F 93% 29.98 in 4.0 mi Calm Calm - N/A   Overcast
3:18 AM 62.6 °F - 60.8 °F 94% 29.99 in 5.0 mi Calm Calm - N/A   Partly Cloudy
3:53 AM 62.1 °F - 60.1 °F 93% 29.97 in 4.0 mi Calm Calm - N/A   Clear
4:36 AM 62.6 °F - 60.8 °F 94% 29.98 in 6.0 mi Calm Calm - N/A   Mostly Cloudy
4:48 AM 62.6 °F - 60.8 °F 94% 29.98 in 5.0 mi Calm Calm - N/A   Mostly Cloudy
4:53 AM 62.1 °F - 60.1 °F 93% 29.97 in 6.0 mi Calm Calm - N/A   Overcast
5:43 AM 60.8 °F - 59.0 °F 94% 29.98 in 4.0 mi Calm Calm - N/A   Overcast
5:53 AM 62.1 °F - 60.1 °F 93% 29.98 in 5.0 mi Calm Calm - N/A   Overcast
5:57 AM 62.6 °F - 60.8 °F 94% 29.99 in 2.5 mi Calm Calm - N/A   Overcast
6:02 AM 62.6 °F - 60.8 °F 94% 29.99 in 0.8 mi Calm Calm - N/A   Mist
6:10 AM 62.6 °F - 60.8 °F 94% 29.99 in 0.5 mi Calm Calm - N/A Fog Fog
6:17 AM 62.6 °F - 60.8 °F 94% 29.99 in 0.8 mi Calm Calm - N/A   Overcast
6:22 AM 62.6 °F - 60.8 °F 94% 29.99 in 1.0 mi Calm Calm - N/A   Overcast
6:26 AM 62.6 °F - 60.8 °F 94% 30.00 in 4.0 mi Calm Calm - N/A   Overcast
6:38 AM 64.4 °F - 62.6 °F 94% 30.00 in 1.8 mi Calm Calm - N/A   Overcast
6:50 AM 64.4 °F - 62.6 °F 94% 30.00 in 2.0 mi Calm Calm - N/A   Overcast
6:53 AM 64.0 °F - 62.1 °F 93% 29.99 in 3.0 mi Calm Calm - N/A   Overcast
7:03 AM 64.4 °F - 62.6 °F 94% 30.00 in 5.0 mi Calm Calm - N/A   Overcast
7:18 AM 64.4 °F - 62.6 °F 94% 29.99 in 4.0 mi Calm Calm - N/A   Scattered Clouds
7:30 AM 64.4 °F - 62.6 °F 94% 29.99 in 4.0 mi Calm Calm - N/A   Mostly Cloudy
7:53 AM 66.0 °F - 64.0 °F 93% 29.99 in 4.0 mi Calm Calm - N/A   Mostly Cloudy
8:02 AM 66.2 °F - 64.4 °F 94% 29.99 in 4.0 mi Calm Calm - N/A   Scattered Clouds
8:53 AM 73.9 °F - 70.0 °F 87% 30.00 in 10.0 mi West 4.6 mph - N/A   Mostly Cloudy
9:53 AM 78.1 °F - 70.0 °F 76% 29.99 in 10.0 mi WNW 11.5 mph - 0.00 in   Clear
10:43 AM 78.8 °F - 69.8 °F 74% 29.99 in 10.0 mi NW 10.4 mph - N/A   Mostly Cloudy
10:53 AM 79.0 °F - 68.0 °F 69% 29.99 in 10.0 mi NW 10.4 mph - N/A   Mostly Cloudy
11:14 AM 80.6 °F 83.2 °F 68.0 °F 65% 29.98 in 10.0 mi North 5.8 mph - N/A   Scattered Clouds
11:53 AM 82.0 °F 84.5 °F 66.9 °F 60% 29.96 in 10.0 mi West 4.6 mph - N/A   Partly Cloudy
12:53 PM 82.9 °F 84.6 °F 64.9 °F 54% 29.94 in 10.0 mi Variable 3.5 mph - N/A   Scattered Clouds
1:53 PM 87.1 °F 87.8 °F 63.0 °F 44% 29.91 in 10.0 mi NW 9.2 mph - N/A   Partly Cloudy
2:53 PM 86.0 °F 85.7 °F 60.1 °F 41% 29.90 in 10.0 mi NNW 12.7 mph 17.3 mph N/A   Clear
3:53 PM 84.0 °F 83.8 °F 59.0 °F 43% 29.89 in 10.0 mi North 6.9 mph - N/A   Clear
4:53 PM 82.0 °F 82.1 °F 59.0 °F 45% 29.89 in 10.0 mi NNW 8.1 mph - N/A   Clear
5:53 PM 79.0 °F - 57.9 °F 48% 29.90 in 10.0 mi NNW 5.8 mph - N/A   Clear
6:53 PM 73.0 °F - 59.0 °F 61% 29.92 in 10.0 mi NNW 3.5 mph - N/A   Clear
7:53 PM 72.0 °F - 55.9 °F 57% 29.92 in 10.0 mi NNW 4.6 mph - N/A   Clear
8:53 PM 70.0 °F - 55.0 °F 59% 29.94 in 10.0 mi NNW 3.5 mph - N/A   Clear
9:53 PM 68.0 °F - 55.0 °F 63% 29.95 in 10.0 mi North 5.8 mph - N/A   Clear
10:53 PM 64.9 °F - 54.0 °F 68% 29.96 in 10.0 mi NNW 4.6 mph - N/A   Clear
11:53 PM 63.0 °F - 54.0 °F 72% 29.96 in 10.0 mi NNW 3.5 mph - N/A   Clear